{"data":{"norad_id":58987,"epoch":"2026-09-22T22:59:38.339232Z","epoch_age_seconds":42781,"freshness":"FRESH","line1":"1 58987U 24032A   26265.95808263  .00000253  00000+0  52073-4 0  9990","line2":"2 58987  97.9860 318.4029 0003907 117.8730 242.2871 14.68353864139187","mean_motion":14.68353864,"eccentricity":0.0003907,"inclination_deg":97.986,"raan_deg":318.4029,"arg_perigee_deg":117.873,"mean_anomaly_deg":242.2871,"bstar":5.2073e-5,"rev_number":13918,"period_min":98.069003344823,"perigee_km":663.57581411187,"apogee_km":669.08035913056,"semimajor_km":7044.4650866212,"source":"CELESTRAK","updated_at":"2026-09-23T09:00:19.122661Z"}}